This is the latest recevied weather packets stored in our database for station/object DL4YM-13. If no packets are shown the sender has not sent any weather packets the latest 10 day(s).
| Time | Temp. | Humidity | Pressure | Rain* | Wind** | Luminosity | Snow |
|---|---|---|---|---|---|---|---|
| 1777728925 | 25.56° C | 33% | 1001 hPa | - | - | - | - |
| 1777728325 | 25.56° C | 33% | 1001 hPa | - | - | - | - |
| 1777727725 | 25.56° C | 34% | 1001.1 hPa | - | - | - | - |
| 1777727125 | 25.56° C | 35% | 1001.3 hPa | - | - | - | - |
| 1777726525 | 25° C | 35% | 1001.4 hPa | - | - | - | - |
| 1777725926 | 25° C | 35% | 1001.6 hPa | - | - | - | - |
| 1777725325 | 24.44° C | 36% | 1001.6 hPa | - | - | - | - |
| 1777724725 | 25.56° C | 35% | 1001.6 hPa | - | - | - | - |
| 1777724125 | 25° C | 36% | 1001.7 hPa | - | - | - | - |
| 1777723526 | 24.44° C | 35% | 1001.9 hPa | - | - | - | - |
| 1777722925 | 25° C | 35% | 1002 hPa | - | - | - | - |
| 1777722325 | 25° C | 33% | 1002 hPa | - | - | - | - |
| 1777721725 | 24.44° C | 33% | 1002.2 hPa | - | - | - | - |
| 1777721125 | 24.44° C | 33% | 1002.3 hPa | - | - | - | - |
| 1777720525 | 23.89° C | 34% | 1002.4 hPa | - | - | - | - |
| 1777719925 | 23.89° C | 34% | 1002.4 hPa | - | - | - | - |
| 1777719325 | 23.89° C | 33% | 1002.4 hPa | - | - | - | - |
| 1777718725 | 23.33° C | 32% | 1002.7 hPa | - | - | - | - |
| 1777718125 | 23.33° C | 32% | 1002.7 hPa | - | - | - | - |
| 1777717525 | 23.33° C | 34% | 1002.8 hPa | - | - | - | - |
| 1777716925 | 23.33° C | 33% | 1003.1 hPa | - | - | - | - |
| 1777716325 | 23.33° C | 33% | 1003.1 hPa | - | - | - | - |
| 1777715725 | 22.22° C | 34% | 1003 hPa | - | - | - | - |
| 1777715125 | 22.22° C | 34% | 1003.2 hPa | - | - | - | - |
| 1777714525 | 22.22° C | 34% | 1003.3 hPa | - | - | - | - |
* Rain since midnight (hover to see other rain measurements)
** Current wind speed in m/s (hover to see current wind gust speed)